TimeMDT,TemperatureF,Dew PointF,Humidity,Sea Level PressureIn,VisibilityMPH,Wind Direction,Wind SpeedMPH,Gust SpeedMPH,PrecipitationIn,Events,Conditions,WindDirDegrees,DateUTC
12:15 AM,53.6,37.4,54,29.82,10.0,East,3.5,-,N/A,,Clear,100,2013-05-28 06:15:00
12:35 AM,50.0,37.4,62,29.82,10.0,SSE,4.6,-,N/A,,Clear,160,2013-05-28 06:35:00
12:55 AM,50.0,37.4,62,29.82,10.0,South,5.8,-,N/A,,Clear,170,2013-05-28 06:55:00
1:15 AM,50.0,35.6,58,29.82,10.0,SSE,6.9,-,N/A,,Clear,150,2013-05-28 07:15:00
1:35 AM,51.8,35.6,54,29.81,10.0,South,3.5,-,N/A,,Scattered Clouds,170,2013-05-28 07:35:00
1:55 AM,50.0,35.6,58,29.80,10.0,South,4.6,-,N/A,,Mostly Cloudy,180,2013-05-28 07:55:00
2:15 AM,50.0,37.4,62,29.80,10.0,SSW,3.5,-,N/A,,Mostly Cloudy,210,2013-05-28 08:15:00
2:35 AM,50.0,37.4,62,29.79,10.0,SSE,3.5,-,N/A,,Mostly Cloudy,150,2013-05-28 08:35:00
2:55 AM,51.8,37.4,58,29.79,10.0,SSE,3.5,-,N/A,,Overcast,150,2013-05-28 08:55:00
3:15 AM,50.0,37.4,62,29.78,10.0,North,4.6,-,N/A,,Mostly Cloudy,350,2013-05-28 09:15:00
3:35 AM,48.2,37.4,66,29.77,10.0,NW,4.6,-,N/A,,Scattered Clouds,320,2013-05-28 09:35:00
3:55 AM,48.2,39.2,71,29.77,10.0,WNW,4.6,-,N/A,,Overcast,290,2013-05-28 09:55:00
4:15 AM,51.8,37.4,58,29.77,10.0,Calm,Calm,-,N/A,,Overcast,0,2013-05-28 10:15:00
4:35 AM,51.8,37.4,58,29.77,10.0,WSW,3.5,-,N/A,,Overcast,240,2013-05-28 10:35:00
5:55 AM,51.8,35.6,54,29.75,10.0,SSE,4.6,-,N/A,,Overcast,150,2013-05-28 11:55:00
6:15 AM,51.8,33.8,50,29.75,10.0,Calm,Calm,-,N/A,,Mostly Cloudy,0,2013-05-28 12:15:00
6:35 AM,51.8,33.8,50,29.75,10.0,Calm,Calm,-,N/A,,Mostly Cloudy,0,2013-05-28 12:35:00
6:55 AM,53.6,35.6,51,29.75,10.0,Calm,Calm,-,N/A,,Overcast,0,2013-05-28 12:55:00
7:15 AM,53.6,33.8,47,29.75,10.0,Calm,Calm,-,N/A,,Overcast,0,2013-05-28 13:15:00
7:35 AM,51.8,39.2,62,29.74,10.0,Calm,Calm,-,N/A,,Overcast,0,2013-05-28 13:35:00
7:55 AM,53.6,35.6,51,29.75,10.0,Calm,Calm,-,N/A,,Scattered Clouds,0,2013-05-28 13:55:00
8:35 AM,53.6,37.4,54,29.74,10.0,Calm,Calm,-,N/A,,Overcast,0,2013-05-28 14:35:00
8:55 AM,57.2,37.4,48,29.74,10.0,Calm,Calm,-,N/A,,Overcast,0,2013-05-28 14:55:00
9:15 AM,57.2,33.8,41,29.74,8.0,East,4.6,-,N/A,,Scattered Clouds,90,2013-05-28 15:15:00
9:35 AM,57.2,35.6,44,29.74,10.0,NE,4.6,-,N/A,,Clear,50,2013-05-28 15:35:00
9:55 AM,59.0,37.4,45,29.74,10.0,Calm,Calm,-,N/A,,Clear,0,2013-05-28 15:55:00
10:15 AM,59.0,35.6,42,29.73,10.0,South,3.5,-,N/A,,Clear,170,2013-05-28 16:15:00
10:35 AM,60.8,35.6,39,29.72,10.0,NE,6.9,-,N/A,,Clear,40,2013-05-28 16:35:00
10:55 AM,60.8,37.4,42,29.71,10.0,NNE,8.1,-,N/A,,Clear,30,2013-05-28 16:55:00
11:15 AM,60.8,37.4,42,29.71,10.0,NNE,5.8,-,N/A,,Clear,20,2013-05-28 17:15:00
11:55 AM,62.6,35.6,37,29.71,10.0,NNE,8.1,-,N/A,,Clear,20,2013-05-28 17:55:00
12:15 PM,62.6,35.6,37,29.71,10.0,Calm,Calm,-,N/A,,Partly Cloudy,0,2013-05-28 18:15:00
12:55 PM,62.6,35.6,37,29.70,10.0,WNW,8.1,-,N/A,,Clear,300,2013-05-28 18:55:00
1:15 PM,64.4,37.4,37,29.69,10.0,Calm,Calm,-,N/A,,Mostly Cloudy,0,2013-05-28 19:15:00
1:35 PM,64.4,33.8,32,29.69,10.0,ESE,3.5,-,N/A,,Mostly Cloudy,120,2013-05-28 19:35:00
2:15 PM,64.4,37.4,37,29.68,10.0,NNE,12.7,18.4,N/A,,Scattered Clouds,30,2013-05-28 20:15:00
2:35 PM,64.4,37.4,37,29.68,10.0,NNE,6.9,-,N/A,,Mostly Cloudy,30,2013-05-28 20:35:00
2:55 PM,62.6,37.4,39,29.68,10.0,NE,6.9,-,N/A,,Overcast,40,2013-05-28 20:55:00
3:15 PM,64.4,35.6,34,29.68,10.0,NE,4.6,-,N/A,,Overcast,50,2013-05-28 21:15:00
3:35 PM,62.6,35.6,37,29.70,10.0,South,11.5,20.7,N/A,,Overcast,180,2013-05-28 21:35:00
3:55 PM,55.4,42.8,63,29.70,10.0,SSW,26.5,31.1,N/A,,Overcast,200,2013-05-28 21:55:00
4:15 PM,55.4,42.8,63,29.71,10.0,SSW,24.2,29.9,N/A,,Overcast,200,2013-05-28 22:15:00
4:35 PM,55.4,42.8,63,29.71,10.0,SSW,21.9,29.9,N/A,,Overcast,200,2013-05-28 22:35:00
4:56 PM,55.4,42.8,63,29.71,10.0,SSW,18.4,-,N/A,,Overcast,210,2013-05-28 22:56:00
5:35 PM,57.2,42.8,59,29.72,10.0,South,16.1,-,N/A,,Overcast,180,2013-05-28 23:35:00
5:55 PM,55.4,44.6,67,29.72,10.0,South,17.3,25.3,N/A,,Overcast,170,2013-05-28 23:55:00
6:15 PM,55.4,44.6,67,29.72,10.0,SSE,12.7,-,N/A,,Overcast,150,2013-05-29 00:15:00
6:55 PM,55.4,44.6,67,29.71,10.0,SW,6.9,-,N/A,,Overcast,230,2013-05-29 00:55:00
7:15 PM,55.4,44.6,67,29.71,10.0,West,3.5,-,N/A,,Overcast,280,2013-05-29 01:15:00
7:35 PM,55.4,46.4,72,29.71,10.0,West,4.6,-,N/A,,Overcast,270,2013-05-29 01:35:00
7:55 PM,55.4,44.6,67,29.72,10.0,NW,9.2,-,N/A,,Overcast,310,2013-05-29 01:55:00
8:15 PM,53.6,44.6,72,29.71,10.0,NW,5.8,-,N/A,,Overcast,310,2013-05-29 02:15:00
8:35 PM,53.6,42.8,67,29.72,10.0,NW,9.2,-,N/A,,Overcast,310,2013-05-29 02:35:00
8:55 PM,53.6,42.8,67,29.73,10.0,WNW,8.1,-,N/A,,Overcast,300,2013-05-29 02:55:00
9:15 PM,51.8,44.6,76,29.74,10.0,NW,10.4,-,N/A,,Overcast,320,2013-05-29 03:15:00
9:35 PM,51.8,42.8,71,29.74,10.0,NNW,8.1,-,N/A,,Overcast,330,2013-05-29 03:35:00
9:55 PM,51.8,42.8,71,29.75,10.0,NW,8.1,-,N/A,,Overcast,320,2013-05-29 03:55:00
10:15 PM,53.6,42.8,67,29.75,10.0,NW,9.2,-,N/A,,Overcast,310,2013-05-29 04:15:00
10:35 PM,51.8,42.8,71,29.75,10.0,NW,5.8,-,N/A,,Overcast,320,2013-05-29 04:35:00
10:55 PM,51.8,42.8,71,29.75,10.0,WNW,6.9,-,N/A,,Overcast,300,2013-05-29 04:55:00
11:15 PM,51.8,42.8,71,29.74,10.0,WNW,5.8,-,N/A,,Overcast,300,2013-05-29 05:15:00
11:35 PM,51.8,41.0,67,29.74,10.0,NW,8.1,-,N/A,,Overcast,310,2013-05-29 05:35:00
11:55 PM,51.8,41.0,67,29.74,10.0,North,5.8,-,N/A,,Mostly Cloudy,350,2013-05-29 05:55:00